Content
SEND FEEDBACK

Daily
Averages
Monthly
Summary
United States of America

GRAFTON, ILLINOIS


Home > North America > United States > Illinois
Elevation: 400 feet     Latitude: 38 58N     Longitude: 090 26W

WEATHER
 
SELECT A DAY
Number of Records: 166,592;   Date Range: 10/8/98 - 7/26/14
 
SHARE

PRINT THIS DATA

[ ← Previous Day ]
WEATHER ALMANAC - FEBRUARY 22, 2013
[ Next Day → ]
[ °C ]   °F
Weather ElementAverageHighLow
Temperature30.5 °F35.6 °F (9:28 am)17.1 °F (11:54 pm)
Dewpoint25.3 °F30.9 °F (12:54 am)12 °F (11:54 pm)
Humidity81.6 %100 % (3:08 am)64 % (3:54 pm)
Barometer29.94 in30.09 in (9:54 pm)29.80 in (3:08 am)
Wind Speed9.2 mph18.4 mph (1:39 pm)
Wind Gust21.9 mph (11:30 am)
Weather ElementAverage
Visibility8.7 mi
Wind DirectionSSW (210 °)

Weather ElementTotal
Precipitation0.55 in
Heating Degree Days38.7 (Base 65)
Averaged from 39 records on February 22, 2013
WEATHER CONDITIONS BREAKOUT
WIND DIRECTION BREAKOUT
WEATHER BY HOUR - FEBRUARY 22, 2013
[ °C ]   °F
Local TimeTemperatureDewpointHumidityBarometerVisibilityWind DirectionWind SpeedGust SpeedPrecipitationEventsConditions
12:54 AM32.0 °F30.9 °F96 %29.84 in3.0 miSE (140°)4.6 mphOvercast
1:54 AM32.0 °F30.0 °F92 %29.83 in4.0 miESE (110°)3.5 mphOvercast
2:54 AM32.0 °F30.0 °F92 %29.82 in3.0 miCalmOvercast
3:08 AM30.2 °F30.2 °F100 %29.80 in2.5 miCalmOvercast
3:20 AM30.2 °F30.2 °F100 %29.80 in3.0 miSE (130°)3.5 mphOvercast
3:54 AM32.0 °F30.9 °F96 %29.82 in4.0 miCalmOvercast
4:31 AM32.0 °F30.2 °F93 %29.81 in5.0 miCalmOvercast
4:54 AM32.0 °F30.9 °F96 %29.83 in7.0 miSW (220°)3.5 mphOvercast
5:54 AM33.1 °F30.9 °F92 %29.84 in10.0 miSW (230°)9.2 mphOvercast
6:05 AM33.8 °F30.2 °F87 %29.83 in10.0 miSW (230°)8.1 mphOvercast
6:54 AM33.1 °F30.9 °F92 %29.86 in10.0 miSW (220°)9.2 mphOvercast
7:24 AM33.8 °F30.2 °F87 %29.87 in10.0 miSSW (210°)10.4 mphOvercast
7:54 AM34.0 °F30.9 °F89 %29.89 in10.0 miSW (220°)8.1 mphOvercast
8:28 AM33.8 °F30.2 °F87 %29.89 in10.0 miSW (220°)6.9 mphOvercast
8:54 AM34.0 °F30.9 °F89 %29.91 in10.0 miSW (230°)9.2 mph0.01 inOvercast
9:28 AM35.6 °F30.2 °F81 %29.91 in10.0 miSW (230°)12.7 mph0.02 inOvercast
9:54 AM35.1 °F30.0 °F82 %29.92 in10.0 miWSW (240°)15.0 mph0.05 inOvercast
10:40 AM33.8 °F28.4 °F81 %29.94 in9.0 miWest (260°)17.3 mph0.06 inOvercast
11:30 AM33.8 °F26.6 °F75 %29.95 in10.0 miWest (260°)17.3 mph21.9 mph0.03 inOvercast
11:51 AM33.8 °F28.4 °F81 %29.96 in10.0 miWSW (250°)16.1 mph0.06 inOvercast
11:54 AM33.1 °F27.0 °F78 %29.97 in10.0 miWSW (250°)15.0 mph0.06 inOvercast
12:43 PM33.8 °F26.6 °F75 %29.96 in10.0 miWest (270°)16.1 mph0.04 inOvercast
12:54 PM32.0 °F27.0 °F82 %29.98 in10.0 miWSW (250°)15.0 mph0.06 inOvercast
1:27 PM33.8 °F24.8 °F70 %29.97 in10.0 miWSW (250°)16.1 mph0.03 inOvercast
1:39 PM33.8 °F24.8 °F70 %29.97 in10.0 miWest (260°)18.4 mph0.03 inOvercast
1:54 PM32.0 °F24.1 °F73 %29.99 in10.0 miWest (260°)16.1 mph0.04 inOvercast
2:54 PM32.0 °F23.0 °F69 %30.00 in10.0 miWest (280°)15.0 mph0.02 inOvercast
3:15 PM32.0 °F23.0 °F69 %29.99 in10.0 miWest (260°)13.8 mph0.01 inOvercast
3:54 PM32.0 °F21.0 °F64 %30.01 in10.0 miWest (280°)12.7 mph0.02 inOvercast
4:54 PM30.9 °F21.0 °F67 %30.02 in10.0 miWest (280°)9.2 mph0.01 inMostly Cloudy
5:54 PM28.0 °F19.0 °F69 %30.04 in10.0 miWNW (300°)8.1 mphClear
6:54 PM26.1 °F18.0 °F71 %30.05 in10.0 miWNW (290°)9.2 mphClear
7:54 PM25.0 °F18.0 °F75 %30.06 in10.0 miWNW (290°)9.2 mphClear
8:54 PM25.0 °F17.1 °F72 %30.07 in10.0 miWest (280°)8.1 mphClear
9:54 PM23.0 °F16.0 °F74 %30.09 in10.0 miWest (260°)6.9 mphClear
10:23 PM21.2 °F15.8 °F80 %30.08 in10.0 miWSW (250°)5.8 mphMostly Cloudy
10:54 PM19.9 °F14.0 °F78 %30.09 in9.0 miWSW (250°)4.6 mphMostly Cloudy
11:18 PM17.6 °F12.2 °F79 %30.08 in9.0 miSW (230°)3.5 mphScattered Clouds
11:54 PM17.1 °F12.0 °F81 %30.09 in9.0 miCalmClear
Hourly data recorded from KSET, located miles away from Grafton, Illinois







STORIES FROM OUR PARTNERS